Location: Krakow
(50.0830°N, 19.9170°E)
Time: 10:53:09
(UTC+01:00)

Transit 2A - Pass Details

Date: 17 February 2023
Orbit: 591 x 964 km, 66.7° (Epoch: 21 March)

Event Time Altitude Azimuth Distance (km) Brightness Sun altitude
Rises 21:27:12 0° 323° (NW) 3,508 10.2 -41.3°
Reaches altitude 10° 21:29:39 10° 324° (NW) 2,607 9.3 -41.6°
Enters shadow 21:31:49 24° 327° (NNW) 1,849 8.4 -41.9°
Maximum altitude 21:35:50 80° 52° (NE) 971 - -42.4°
Drops below altitude 10° 21:42:13 10° 140° (SE) 2,697 - -43.2°
Sets 21:44:47 0° 141° (SE) 3,636 - -43.5°
